Fredericksburg, VA

2:03 PM EST on December 15, 2019 (GMT -0500)
Shannon

Weather History for KEZF - October, 2019

Change the Weather History Date:

Saturday, October 19, 2019

  Actual Average (KNYG) Record (KNYG)
Temperature  
Mean Temperature 51 °F -  
Max Temperature 66 °F 63 °F 82 °F (2016)
Min Temperature 36 °F 45 °F 34 °F (2015)
Degree Days  
Heating Degree Days 14    
Growing Degree Days 1 (Base 50)    
Moisture  
Dew Point 44 °F    
Average Humidity 80    
Maximum Humidity 100    
Minimum Humidity 46    
Precipitation  
Precipitation 0.00 in - - ()
Sea Level Pressure  
Sea Level Pressure 30.07 in    
Wind  
Wind Speed 1 mph ()    
Max Wind Speed 8 mph    
Max Gust Speed -    
Visibility 7.9 miles    
Events      
Averages and records for this station are not official NWS values.
T = Trace of Precipitation, MM = Missing Value Source: Averaged Metar Reports

Daily Weather History Graph

Daily Weather History Graph

Search for Another Location

Airport or City:

Astronomy

Oct. 19, 2019 Rise Set
Actual Time 7:22 AM EDT 6:26 PM EDT
Civil Twilight 6:55 AM EDT 6:53 PM EDT
Nautical Twilight 6:24 AM EDT 7:24 PM EDT
Astronomical Twilight 5:54 AM EDT 7:54 PM EDT
Moon 10:37 PM EDT (10/19) 12:49 PM EDT (10/19)
Length of Visible Light 11h 57m
Length of Day
11h 04m
Waning Gibbous, 70% of the Moon is Illuminated
Oct 19
Waning Gibbous
Oct 21
Last Quarter
Oct 27
New
Nov 4
First Quarter
Nov 12
Full

Hourly Weather History & Observations

Time (EDT) Temp. Windchill Dew Point Humidity Pressure Visibility Wind Dir Wind Speed Gust Speed Precip Events Conditions
12:15 AM 41.7 °F - 41.7 °F 100% 30.06 in 7.0 mi Calm Calm - N/A   Clear
12:35 AM 41.7 °F - 41.4 °F 99% 30.06 in 7.0 mi Calm Calm - N/A   Clear
12:55 AM 41.9 °F - 41.9 °F 100% 30.07 in 7.0 mi Calm Calm - N/A   Clear
1:15 AM 41.4 °F 39.4 °F 41.4 °F 100% 30.07 in 7.0 mi West 3.5 mph - N/A   Clear
1:35 AM 41.2 °F - 41.2 °F 100% 30.07 in 7.0 mi Calm Calm - N/A   Clear
1:55 AM 41.0 °F - 41.0 °F 100% 30.06 in 7.0 mi Calm Calm - N/A   Clear
2:15 AM 41.0 °F - 41.0 °F 100% 30.06 in 7.0 mi Calm Calm - N/A   Clear
2:35 AM 40.3 °F 37.1 °F 40.3 °F 100% 30.07 in 7.0 mi WSW 4.6 mph - N/A   Clear
2:55 AM 40.3 °F - 40.3 °F 100% 30.08 in 7.0 mi Calm Calm - N/A   Clear
3:15 AM 40.3 °F - 40.3 °F 100% 30.08 in 7.0 mi Calm Calm - N/A   Clear
3:35 AM 40.1 °F - 40.1 °F 100% 30.08 in 7.0 mi Calm Calm - N/A   Clear
3:55 AM 39.7 °F - 39.7 °F 100% 30.09 in 7.0 mi Calm Calm - N/A   Clear
4:15 AM 40.1 °F - 40.1 °F 100% 30.09 in 7.0 mi Calm Calm - N/A   Clear
4:35 AM 39.6 °F 37.4 °F 39.6 °F 100% 30.10 in 10.0 mi NW 3.5 mph - N/A   Clear
4:55 AM 39.4 °F - 39.4 °F 100% 30.10 in 7.0 mi Calm Calm - N/A   Clear
5:15 AM 39.2 °F - 39.0 °F 99% 30.10 in 7.0 mi Calm Calm - N/A   Clear
5:35 AM 38.3 °F - 38.3 °F 100% 30.10 in 7.0 mi Calm Calm - N/A   Clear
5:55 AM 38.3 °F - 38.3 °F 100% 30.10 in 7.0 mi Calm Calm - N/A   Clear
6:15 AM 38.3 °F - 38.3 °F 100% 30.10 in 7.0 mi Calm Calm - N/A   Clear
6:35 AM 38.3 °F - 38.3 °F 100% 30.11 in 7.0 mi Calm Calm - N/A   Clear
6:55 AM 37.4 °F - 37.4 °F 100% 30.11 in 7.0 mi Calm Calm - N/A   Clear
7:15 AM 36.7 °F - 36.7 °F 100% 30.12 in 7.0 mi Calm Calm - N/A   Clear
7:35 AM 37.4 °F - 37.4 °F 100% 30.12 in 7.0 mi Calm Calm - N/A   Clear
7:55 AM 38.1 °F - 38.1 °F 100% 30.12 in 7.0 mi Calm Calm - N/A   Clear
8:15 AM 39.7 °F - 39.7 °F 100% 30.12 in 7.0 mi Calm Calm - N/A   Clear
8:35 AM 41.9 °F - 41.0 °F 97% 30.12 in 7.0 mi Calm Calm - N/A   Clear
9:15 AM 46.8 °F - 43.5 °F 88% 30.13 in 5.0 mi Calm Calm - N/A   Mist
9:35 AM 49.1 °F - 43.9 °F 82% 30.12 in 7.0 mi Calm Calm - N/A   Clear
10:15 AM 52.7 °F - 44.1 °F 72% 30.12 in 5.0 mi Calm Calm - N/A   Haze
10:35 AM 54.3 °F - 45.1 °F 71% 30.12 in 2.0 mi Calm Calm - N/A   Haze
10:55 AM 56.5 °F - 45.1 °F 66% 30.13 in 1.8 mi SE 3.5 mph - N/A   Haze
11:15 AM 57.2 °F - 45.5 °F 65% 30.12 in 1.2 mi SSE 4.6 mph - N/A   Haze
11:35 AM 57.9 °F - 46.0 °F 65% 30.12 in 3.0 mi Calm Calm - N/A   Haze
11:55 AM 59.7 °F - 46.8 °F 62% 30.12 in 4.0 mi Calm Calm - N/A   Haze
12:15 PM 61.7 °F - 46.2 °F 57% 30.12 in 2.5 mi South 6.9 mph - N/A   Haze
12:35 PM 61.9 °F - 44.2 °F 52% 30.12 in 1.8 mi South 6.9 mph - N/A   Haze
12:55 PM 62.8 °F - 44.2 °F 51% 30.11 in 10.0 mi SW 4.6 mph - N/A   Clear
1:15 PM 63.7 °F - 44.2 °F 49% 30.09 in 10.0 mi SSW 4.6 mph - N/A   Clear
1:35 PM 63.7 °F - 45.1 °F 51% 30.08 in 10.0 mi SW 5.8 mph - N/A   Clear
1:55 PM 64.2 °F - 44.1 °F 48% 30.07 in 10.0 mi SSW 8.1 mph - N/A   Clear
2:15 PM 64.0 °F - 44.4 °F 49% 30.06 in 10.0 mi South 6.9 mph - N/A   Clear
2:35 PM 64.8 °F - 43.7 °F 46% 30.06 in 10.0 mi South 6.9 mph - N/A   Clear
2:55 PM 65.1 °F - 44.8 °F 48% 30.05 in 10.0 mi SSW 4.6 mph - N/A   Clear
3:15 PM 66.4 °F - 45.0 °F 46% 30.04 in 10.0 mi SSW 4.6 mph - N/A   Clear
3:35 PM 65.7 °F - 44.8 °F 47% 30.04 in 10.0 mi SW 5.8 mph - N/A   Clear
3:55 PM 65.5 °F - 44.1 °F 46% 30.04 in 10.0 mi South 6.9 mph - N/A   Clear
4:15 PM 65.3 °F - 44.4 °F 47% 30.03 in 10.0 mi SSE 5.8 mph - N/A   Clear
4:35 PM 64.8 °F - 44.2 °F 47% 30.03 in 10.0 mi SSW 4.6 mph - N/A   Clear
4:55 PM 64.4 °F - 44.6 °F 49% 30.03 in 10.0 mi SSW 6.9 mph - N/A   Clear
5:15 PM 63.9 °F - 44.1 °F 49% 30.02 in 10.0 mi South 4.6 mph - N/A   Clear
5:35 PM 63.0 °F - 45.5 °F 53% 30.02 in 10.0 mi Calm Calm - N/A   Clear
5:55 PM 62.6 °F - 46.9 °F 57% 30.02 in 10.0 mi Calm Calm - N/A   Clear
6:15 PM 59.2 °F - 49.8 °F 71% 30.02 in 10.0 mi Calm Calm - N/A   Clear
6:35 PM 57.0 °F - 49.5 °F 76% 30.01 in 10.0 mi Calm Calm - N/A   Clear
7:15 PM 55.2 °F - 49.8 °F 82% 30.01 in 10.0 mi Calm Calm - N/A   Clear
7:35 PM 54.0 °F - 49.3 °F 84% 30.01 in 10.0 mi Calm Calm - N/A   Clear
7:55 PM 54.0 °F - 49.8 °F 86% 30.02 in 10.0 mi Calm Calm - N/A   Clear
8:15 PM 53.2 °F - 49.5 °F 87% 30.01 in 10.0 mi Calm Calm - N/A   Clear
8:35 PM 53.6 °F - 49.5 °F 86% 30.01 in 10.0 mi Calm Calm - N/A   Clear
8:55 PM 53.6 °F - 50.0 °F 88% 30.01 in 10.0 mi Calm Calm - N/A   Clear
9:15 PM 52.3 °F - 49.6 °F 91% 30.01 in 10.0 mi Calm Calm - N/A   Clear
9:35 PM 52.2 °F - 50.0 °F 92% 30.01 in 10.0 mi Calm Calm - N/A   Clear
9:55 PM 52.7 °F - 50.2 °F 91% 30.01 in 10.0 mi Calm Calm - N/A   Clear
10:15 PM 52.3 °F - 50.0 °F 92% 30.01 in 10.0 mi Calm Calm - N/A   Clear
10:35 PM 52.2 °F - 50.4 °F 94% 30.01 in 10.0 mi Calm Calm - N/A   Clear
10:55 PM 52.0 °F - 50.2 °F 94% 30.01 in 10.0 mi Calm Calm - N/A   Clear
11:15 PM 53.1 °F - 50.7 °F 92% 30.01 in 10.0 mi Calm Calm - N/A   Clear
11:35 PM 53.4 °F - 50.7 °F 91% 30.01 in 10.0 mi Calm Calm - N/A   Clear
11:55 PM 53.2 °F - 50.9 °F 92% 30.01 in 10.0 mi Calm Calm - N/A   Clear